Location: Lake Arresoe
(56.0000°N, 12.5000°E)
Time: 04:06:57
(UTC+01:00)

Cosmos 2058 - Pass Details

Date: 17 October 2019
Orbit: 562 x 584 km, 82.5° (Epoch: 21 November)

Event Time Altitude Azimuth Distance (km) Brightness Sun altitude
Rises 19:13:38 0° 354° (N) 2,825 6.5 -10.3°
Reaches altitude 10° 19:16:13 10° 9° (N) 1,921 5.5 -10.6°
Maximum altitude 19:19:38 23° 63° (ENE) 1,260 4.1 -11.1°
Enters shadow 19:21:51 16° 104° (ESE) 1,566 4.5 -11.4°
